sat.trackr.live / text

‹ back to catalog

STARLINK-31481

NORAD 59541 · 2024-074H

PAYLOAD ACTIVE UNKNOWN

§ Identity

Operator
Country
US
Launch date
2024-04-18
Launch site
AFETR
Launch vehicle
Mass (kg)
RCS (m²)

Purposes: comms

External: N2YO · Heavens-Above · Gunter

§ Orbital elements

Epoch: 2026-09-21T14:44:52.646208Z

Period
94.27 min
Inclination
43.0031°
Eccentricity
0.0001373
Mean motion
15.27578204 rev/d
Perigee alt
482.1 km
Apogee alt
484.0 km
Semi-major
6,861.2 km
B*
3.4768e-5
RAAN
316.6016°
Arg perigee
243.6792°
Mean anomaly
116.3919°
Rev number
13,598

§ Raw data

STARLINK-314811 59541U 24074H   26264.61449822  .00000695  00000+0  34768-4 0  99982 59541  43.0031 316.6016 0001373 243.6792 116.3919 15.27578204135984

JSON: /api/v1/satellites/59541 · /tle

For live sub-satellite position, see the globe view (requires WebGL).

§ Visibility from observer

Set your observer location to see the next 7 days of passes ≥ 10°. The values pass through the URL so the page stays shareable.

No JS? Fill the form by hand. The geolocation button needs JavaScript.